Theta_e
332 332 332 331 331 330 330 328 328 328 328 328 325 321 321 321 321 320 320 321 321 321 321 320 320 319 318 318 318 318 317 316 316 316 316 317 317 316 316 316 315 315
332 332 331 330 330 330 329 328 328 328 327 327 323 321 321 321 320 321 321 321 321 320 320 319 319 318 317 317 316 316 316 315 315 316 316 316 315 314 314 313 313 313
331 331 330 329 330 330 329 328 328 326 325 323 322 321 321 321 321 321 321 321 320 319 319 318 318 318 317 316 315 314 314 314 315 315 315 315 313 313 312 312 312 312
330 329 329 329 330 329 327 326 324 322 321 321 321 321 321 321 321 321 320 320 320 319 318 317 317 318 316 314 314 314 314 315 315 314 314 313 312 312 312 312 312 312
329 328 328 329 329 328 326 323 320 320 320 321 321 321 321 321 320 320 320 320 319 318 318 317 316 316 315 314 314 315 315 315 315 314 313 312 312 312 312 312 312 312
328 329 328 328 326 324 322 321 319 319 321 321 321 321 321 321 320 320 320 320 319 318 317 316 315 315 316 316 315 315 315 315 314 313 312 311 311 311 312 311 312 312
328 328 328 326 322 320 320 319 319 320 321 321 321 321 321 320 320 319 319 319 318 317 317 316 316 316 316 316 316 316 315 315 313 312 311 309 309 310 310 310 311 311
328 327 325 323 321 320 320 319 319 320 320 320 321 320 320 319 319 319 319 319 318 317 316 316 316 316 316 316 316 315 315 314 313 312 309 306 304 304 304 304 306 307
326 324 322 321 320 320 319 320 320 320 319 319 320 320 320 319 319 319 319 318 317 316 316 316 316 315 315 315 315 315 314 313 312 311 308 302 300 300 299 299 301 302
324 322 320 319 319 319 319 320 319 319 319 319 319 319 319 318 318 318 317 317 316 316 317 316 316 315 314 314 314 314 313 313 312 311 308 303 299 298 298 298 298 300
321 320 318 318 318 319 319 319 318 318 319 319 318 318 318 318 317 317 316 316 316 316 317 316 316 315 314 312 313 313 312 312 311 310 307 303 299 297 297 297 298 300
318 318 317 317 318 318 318 318 318 318 318 318 319 318 318 318 317 316 316 315 314 315 316 316 315 315 312 311 311 312 312 310 307 304 302 300 299 297 296 297 298 301
318 317 317 317 318 318 317 318 317 317 318 318 318 318 317 317 316 315 315 314 313 313 314 314 314 312 310 308 308 310 310 308 304 301 299 298 297 297 296 296 299 302
318 317 317 317 318 317 317 317 317 317 317 317 317 317 316 316 315 314 313 313 312 312 312 312 310 308 305 303 303 303 304 302 300 299 298 297 296 296 295 296 298 302
317 317 317 317 317 317 317 317 317 317 316 316 316 315 314 314 313 313 312 311 310 308 308 307 304 302 300 299 299 298 298 298 297 297 296 296 296 296 295 295 298 302
317 317 317 317 317 317 317 317 317 316 316 316 316 315 314 313 312 311 309 307 305 304 302 301 299 298 298 297 297 297 296 296 296 296 296 296 296 296 295 296 298 302
317 316 317 317 317 317 317 317 316 316 315 315 315 314 313 312 311 308 305 303 301 300 299 298 297 297 297 296 296 296 296 296 296 296 296 295 296 296 296 296 297 300
316 316 316 316 316 316 316 316 315 315 315 314 314 313 312 310 308 304 301 300 299 298 297 297 296 296 296 296 296 296 295 296 296 295 296 295 296 296 296 296 296 297
316 316 316 316 316 316 315 315 315 315 315 314 313 312 310 307 304 301 299 298 297 297 296 296 296 296 296 296 296 295 295 295 295 295 296 296 296 296 296 296 296 296
316 316 316 316 316 315 315 315 315 314 314 313 312 310 307 303 300 298 297 297 296 296 296 296 296 296 295 295 295 295 295 296 296 295 296 296 295 296 296 296 296 296
316 316 316 316 315 315 315 315 314 313 313 311 310 307 304 301 299 297 297 296 296 296 296 295 296 295 295 295 295 295 295 295 296 295 296 296 295 295 295 296 296 296
316 316 316 315 315 315 314 314 313 312 311 310 307 303 300 299 297 296 296 296 296 295 295 296 296 296 296 295 295 295 295 295 296 295 295 295 295 295 295 295 295 295
316 316 315 315 314 314 314 313 312 312 310 307 303 300 299 298 297 296 296 296 295 295 296 297 298 299 299 298 297 297 296 295 295 295 295 295 295 295 295 295 295 295
316 315 315 314 314 314 313 312 312 310 307 303 300 299 298 297 296 296 296 295 295 295 296 298 300 302 302 302 302 300 298 296 295 295 295 295 295 295 295 295 295 295
316 315 315 314 314 313 312 312 310 307 303 301 299 298 297 296 296 296 295 295 295 295 296 298 300 302 303 304 303 302 300 298 296 295 295 295 295 295 295 294 294 294
316 315 314 314 313 312 312 311 309 305 302 300 298 297 296 296 296 296 295 295 295 295 296 298 299 301 302 302 301 301 300 298 296 295 295 295 295 294 294 294 294 294
Wind_Speed
14 13 13 12 12 13 13 13 14 15 15 13 10 7 5 4 4 4 5 6 6 7 8 7 7 6 5 5 6 6 6 7 8 8 8 9 10 11 11 12 12 13
12 12 13 12 13 15 15 15 16 17 17 15 11 7 5 4 5 6 7 7 7 8 7 6 5 5 5 5 5 5 5 6 7 8 8 9 10 11 11 12 13 13
13 13 14 14 14 15 15 16 17 18 18 16 10 5 6 8 9 8 8 7 7 8 7 4 4 5 6 6 5 5 6 8 8 8 8 9 11 11 12 13 13 14
13 14 15 15 14 15 16 16 17 17 16 12 7 10 12 12 11 10 9 7 7 7 6 4 4 5 7 8 8 8 9 10 10 9 9 10 11 11 11 12 13 14
13 14 15 15 15 16 17 16 14 13 12 12 14 15 14 12 11 10 8 5 4 6 6 4 4 6 8 9 9 10 11 11 10 11 11 12 11 10 11 11 12 13
13 13 14 15 16 16 16 14 12 11 15 18 17 15 13 11 8 7 7 3 3 7 9 8 7 9 11 11 12 12 11 10 10 12 13 13 12 10 10 11 12 14
14 13 14 15 16 15 15 13 12 16 20 19 17 14 12 9 7 8 7 3 3 7 10 10 10 10 10 11 12 11 10 10 11 12 13 14 12 11 11 12 12 14
14 14 14 15 14 14 13 12 15 21 21 19 18 14 10 10 10 9 8 5 4 8 9 9 9 9 8 8 9 8 8 9 11 12 13 14 14 14 15 14 14 15
14 14 15 15 15 14 13 15 19 21 20 20 18 14 12 12 11 10 9 7 6 7 7 6 6 7 7 6 6 7 8 8 10 11 13 15 15 16 17 17 17 17
16 16 16 16 15 14 14 18 21 22 21 19 17 15 15 13 12 11 8 6 7 8 7 5 4 4 5 6 7 7 7 7 8 10 12 14 16 16 17 18 19 19
18 17 16 16 16 15 16 19 22 23 21 18 17 16 14 13 13 11 8 7 7 9 8 7 5 2 3 6 9 7 6 5 6 7 8 11 13 15 16 17 19 20
18 17 16 16 17 17 18 19 20 22 20 17 17 17 15 13 12 10 8 7 8 9 10 8 6 3 1 5 9 7 4 4 6 7 8 9 11 13 15 17 19 20
18 17 16 17 19 20 20 18 19 20 19 18 18 16 14 12 11 10 9 8 9 10 10 9 7 4 2 5 8 8 5 4 5 7 8 9 10 12 14 16 19 21
20 19 18 19 21 21 21 19 19 19 19 18 16 15 13 12 12 11 10 9 9 9 9 9 7 5 4 5 6 7 5 4 5 6 7 9 10 12 14 16 18 21
21 20 20 21 24 24 22 20 18 18 17 16 14 14 15 14 13 11 10 10 10 10 9 9 7 6 6 6 6 7 7 6 6 7 8 9 11 12 14 16 18 20
23 22 22 25 27 25 22 22 20 18 17 16 14 14 15 14 12 11 11 11 11 10 10 9 8 8 8 8 8 8 8 8 8 9 10 11 12 13 15 17 18 18
25 24 24 28 29 26 24 24 22 19 17 15 14 15 15 13 12 12 12 12 11 11 11 10 9 9 9 9 9 9 10 10 11 12 13 13 13 14 16 17 17 17
27 27 27 29 28 26 26 24 22 20 18 15 14 14 15 13 13 13 13 12 11 11 11 11 11 11 10 9 11 12 12 12 13 13 14 15 15 16 16 17 17 17
28 29 29 28 26 26 25 24 22 21 18 16 15 15 15 14 14 13 13 12 12 11 12 12 12 12 11 11 12 13 13 13 14 14 15 16 16 16 16 17 18 18
29 31 30 28 27 26 26 23 21 19 17 16 16 16 16 15 15 14 13 13 12 12 13 13 13 13 13 13 14 14 13 14 14 15 15 16 16 17 17 17 18 18
30 30 30 28 27 26 25 23 21 19 17 17 18 17 16 16 15 14 13 13 13 13 14 15 15 16 15 15 15 15 14 14 14 15 16 16 16 16 17 18 18 18
30 30 29 27 25 25 24 22 20 18 17 18 19 18 17 16 14 14 14 14 15 14 15 16 18 17 16 16 16 15 15 14 14 14 15 16 17 16 17 18 18 17
30 30 28 26 25 24 23 21 20 19 19 20 20 19 17 16 15 15 15 15 16 15 15 17 18 18 16 15 15 15 14 14 14 15 15 16 17 16 17 17 17 17
30 28 26 26 25 23 23 22 21 20 20 21 20 18 17 15 14 15 16 16 17 17 16 17 18 18 16 13 12 12 12 13 14 15 16 16 16 16 17 17 16 16
30 27 26 26 25 23 23 22 21 21 22 20 18 16 15 14 14 15 16 17 17 17 17 17 18 18 16 14 12 10 9 10 12 14 16 16 15 16 16 16 16 15
28 26 26 26 25 24 23 22 22 22 21 19 18 16 16 16 16 15 16 16 16 16 17 17 17 17 17 14 12 9 8 8 10 13 15 15 15 15 16 16 16 16
Wind_Direction
176 181 190 200 209 215 208 195 198 210 221 231 240 241 216 185 154 118 100 90 81 76 76 72 66 61 49 36 23 15 16 18 27 39 43 44 43 40 38 35 33 31
186 194 203 212 215 213 205 198 202 214 225 232 236 223 183 146 105 91 92 89 78 69 65 66 66 57 45 37 21 11 23 39 51 55 54 52 46 40 36 33 32 30
194 202 208 213 212 205 202 203 209 218 222 223 220 185 122 97 88 85 83 74 60 56 54 53 50 35 36 43 39 38 50 57 59 57 54 51 45 37 35 36 37 37
195 201 204 206 203 201 206 210 210 212 210 201 157 109 97 92 90 82 73 59 42 45 48 38 26 31 45 54 55 54 53 52 48 38 39 45 42 36 36 39 41 44
197 203 203 200 199 205 211 210 206 197 176 142 114 104 101 97 90 85 85 75 39 40 47 48 48 55 60 57 53 53 50 42 31 24 33 42 41 38 36 36 40 45
202 205 200 195 196 200 200 201 197 167 134 120 112 109 106 96 89 103 123 124 29 35 47 58 69 71 66 54 46 48 46 35 20 22 35 40 42 45 40 36 41 45
204 197 191 191 190 186 188 190 169 135 125 121 116 113 113 117 128 142 147 144 71 63 66 71 78 81 77 66 59 52 41 28 17 21 33 41 49 56 50 46 49 51
198 187 185 187 181 180 185 174 142 130 128 126 121 123 135 144 147 156 168 174 133 106 98 94 94 96 95 88 79 64 42 26 19 19 31 46 57 58 54 54 57 59
186 181 185 186 180 183 181 155 136 130 127 126 129 143 159 159 161 176 188 188 166 141 127 118 107 101 103 109 103 75 52 34 23 23 31 46 56 53 51 54 59 63
180 184 187 182 176 177 167 146 138 131 127 132 145 161 170 171 176 184 179 163 162 160 153 151 136 100 90 109 115 94 73 53 35 31 33 42 51 51 47 49 57 63
182 186 184 176 172 165 150 142 140 136 137 147 161 171 178 181 183 182 164 147 163 172 173 172 166 133 67 101 118 113 93 70 51 49 48 47 50 52 50 51 57 63
178 179 179 172 165 152 143 142 141 142 149 163 172 180 185 185 187 185 169 161 173 180 182 183 181 180 92 109 128 133 116 77 62 66 71 64 57 55 56 59 63 65
174 175 174 165 155 147 144 140 139 146 162 174 178 185 189 186 184 178 170 168 170 172 175 180 184 178 130 121 138 147 145 108 76 69 72 70 65 61 62 67 70 69
179 176 173 163 151 142 136 135 141 155 170 176 177 183 184 178 170 166 167 166 161 161 166 171 175 163 130 120 129 134 132 114 88 77 73 71 70 66 65 69 74 73
179 174 172 160 144 136 136 144 155 165 173 177 177 174 168 163 161 161 161 158 155 157 160 162 160 144 120 109 110 110 102 92 83 78 74 72 69 66 66 68 72 75
176 173 169 153 141 142 150 159 168 174 179 185 185 174 163 160 159 156 151 152 153 154 155 153 145 128 112 105 105 102 96 90 83 78 75 72 68 66 67 68 71 77
176 173 162 149 147 153 160 166 173 180 182 184 182 173 162 158 155 150 149 152 154 154 153 148 134 120 113 113 110 102 99 95 90 87 83 79 75 72 70 70 73 79
172 164 152 149 153 159 164 169 175 178 180 181 177 169 161 155 152 151 152 155 156 157 152 141 129 122 120 120 111 102 99 97 94 94 91 87 82 78 75 75 74 77
163 153 148 150 154 159 164 171 175 179 184 181 173 165 160 155 153 153 155 157 159 158 148 137 131 129 126 120 111 104 101 100 98 97 95 92 88 84 81 79 77 75
155 149 151 155 158 163 168 174 179 182 182 177 169 164 160 157 157 158 158 158 159 155 146 140 136 132 127 120 113 108 106 104 102 100 97 94 90 87 84 81 79 77
152 151 156 160 164 169 173 179 182 180 176 172 168 164 162 161 161 161 160 160 159 153 147 144 138 130 124 119 115 111 108 106 104 103 100 95 91 88 85 82 78 75
154 158 163 166 169 171 175 178 179 177 174 171 167 164 164 164 163 163 164 162 157 153 151 145 136 128 124 119 114 110 110 109 107 105 100 97 93 88 85 83 79 74
160 165 168 169 170 172 174 176 178 178 175 170 168 167 167 168 167 166 166 163 158 156 155 147 136 130 125 119 113 112 113 113 112 108 103 99 95 91 87 84 81 77
168 171 171 170 171 174 176 177 179 178 172 169 171 170 168 169 169 167 166 164 160 158 158 150 139 132 128 123 118 117 118 117 115 111 106 100 96 93 90 84 81 79
175 176 174 173 175 177 177 178 179 175 170 170 172 172 168 166 167 167 166 164 161 159 158 154 143 136 134 133 130 128 125 121 117 112 107 102 97 94 90 84 81 79
178 178 177 178 179 178 179 180 179 175 170 169 171 171 170 166 164 164 163 160 159 158 157 154 146 139 138 138 136 135 134 129 120 111 106 104 100 96 91 86 83 82